KE4OGG Weather Reports


Display with metric or nautical units.
time (UTC)temp
F
wind
direction
speed
MPH
gust
MPH
rain 1hr
in
rain 24hr
in
rain mn
in
humidity
%
barometer
mb
20260507051022 63 0 0.0 4.0 0.28 1.47 0.29 86 1014.1
20260507050523 64 292 1.0 6.0 0.26 1.45 0.27 86 1014.3
20260507050038 64 293 2.0 6.0 0.24 1.42 0.24 86 1015.1
20260507045523 64 349 1.0 4.0 0.19 1.37 0.19 86 1014.6
20260507045022 64 53 1.0 4.0 0.07 1.25 0.07 86 1014.9
20260507044552 64 285 2.0 3.0 0.06 1.24 0.06 86 1014.7
20260507044022 64 304 0.0 1.0 0.06 1.24 0.06 86 1013.5
20260507043523 64 0 0.0 1.0 0.03 1.21 0.03 86 1013.5
20260507043039 64 0 0.0 1.0 0.02 1.20 0.02 86 1013.7
20260507042522 64 0 0.0 1.0 0.02 1.20 0.02 86 1013.7
20260507042022 64 0 0.0 1.0 0.02 1.20 0.02 86 1013.7
20260507041538 64 0 0.0 1.0 0.02 1.20 0.02 86 1014.1
20260507041022 64 0 0.0 1.0 0.01 1.19 0.01 86 1014.1
20260507040523 64 0 0.0 1.0 0.01 1.19 0.01 86 1014.0
20260507040039 64 0 0.0 1.0 0.00 1.17 0.00 86 1014.0
20260507035522 64 0 0.0 0.0 0.00 1.17 1.17 86 1013.8
20260507035026 64 0 0.0 0.0 0.00 1.17 1.17 86 1014.0
20260507034538 64 0 0.0 0.0 0.00 1.17 1.17 86 1014.0
20260507034023 64 0 0.0 0.0 0.00 1.17 1.17 86 1013.6
20260507033523 64 0 0.0 1.0 0.00 1.17 1.17 86 1013.3
20260507033351 64 0 0.0 1.0 0.00 1.17 1.17 86 1013.2
20260507032522 64 0 0.0 2.0 0.00 1.17 1.17 86 1013.4
20260507032022 64 0 0.0 2.0 0.00 1.17 1.17 86 1013.2
20260507031538 64 0 1.0 2.0 0.00 1.17 1.17 86 1013.6
20260507031023 64 0 0.0 1.0 0.00 1.17 1.17 86 1013.5
20260507030525 64 147 0.0 1.0 0.00 1.17 1.17 86 1013.5
20260507030039 64 0 0.0 1.0 0.01 1.17 1.17 86 1013.8
20260507025522 64 0 0.0 1.0 0.01 1.17 1.17 85 1013.9
20260507025022 64 0 0.0 1.0 0.01 1.17 1.17 85 1013.7
20260507024541 64 147 0.0 4.0 0.02 1.17 1.17 85 1013.5
20260507024022 64 0 0.0 4.0 0.03 1.17 1.17 85 1013.5
20260507023525 64 0 0.0 4.0 0.03 1.17 1.17 85 1013.3
20260507023037 64 103 1.0 4.0 0.03 1.17 1.17 85 1013.3
20260507022525 64 122 2.0 4.0 0.03 1.17 1.17 85 1013.3
20260507022024 64 108 1.0 2.0 0.03 1.17 1.17 85 1013.5
20260507021540 64 302 0.0 1.0 0.04 1.17 1.17 85 1013.4
20260507021023 64 0 0.0 1.0 0.05 1.17 1.17 85 1013.7
20260507020523 64 0 0.0 1.0 0.05 1.17 1.17 85 1014.4
20260507020046 64 0 0.0 1.0 0.05 1.16 1.16 85 1014.5
20260507015525 64 302 0.0 1.0 0.09 1.16 1.16 85 1013.8
20260507015022 64 302 0.0 2.0 0.14 1.16 1.16 85 1013.9
20260507014537 64 302 0.0 2.0 0.17 1.16 1.16 85 1014.3
20260507014025 64 321 0.0 2.0 0.26 1.15 1.15 85 1013.6
20260507013522 64 0 0.0 2.0 0.69 1.15 1.15 85 1014.8
20260507013040 64 0 0.0 2.0 0.98 1.15 1.15 85 1014.9
20260507012522 64 0 0.0 0.0 1.01 1.15 1.15 85 1014.7
20260507012022 64 0 0.0 0.0 1.02 1.14 1.14 85 1014.9
20260507011541 64 0 0.0 1.0 1.02 1.14 1.14 85 1014.5
20260507011022 64 0 0.0 1.0 1.01 1.13 1.13 85 1014.6
20260507010522 64 0 0.0 2.0 1.01 1.13 1.13 84 1014.7
20260507010040 64 43 0.0 2.0 0.99 1.11 1.11 84 1014.8
20260507005522 64 43 0.0 3.0 0.96 1.08 1.08 84 1015.3
20260507005021 64 43 0.0 3.0 0.90 1.02 1.02 84 1015.1
20260507004539 64 301 0.0 6.0 0.86 0.98 0.98 83 1015.2
20260507004023 64 0 1.0 6.0 0.74 0.86 0.86 83 1015.1
20260507003524 65 1 4.0 6.0 0.27 0.39 0.39 82 1016.0
20260507003037 65 316 4.0 6.0 0.05 0.17 0.17 81 1015.3
20260507002522 64 297 0.0 3.0 0.07 0.14 0.14 79 1011.2
20260507002024 65 0 0.0 2.0 0.06 0.12 0.12 79 1011.6
20260507001541 65 205 0.0 2.0 0.06 0.12 0.12 79 1011.6
20260507001022 65 0 0.0 2.0 0.06 0.12 0.12 78 1010.9
20260507000522 65 275 0.0 1.0 0.07 0.12 0.12 77 1011.9
20260507000038 65 0 0.0 1.0 0.07 0.12 0.12 74 1012.4
20260506235523 65 337 0.0 1.0 0.07 0.12 0.12 73 1012.7
20260506235023 65 0 0.0 1.0 0.07 0.12 0.12 71 1013.1
20260506234542 66 0 0.0 1.0 0.07 0.12 0.12 69 1013.2
20260506234023 66 0 0.0 2.0 0.07 0.12 0.12 68 1013.6
20260506233523 66 0 0.0 3.0 0.07 0.12 0.12 67 1013.6
20260506233040 67 298 1.0 4.0 0.06 0.11 0.11 65 1013.5
20260506232522 67 0 1.0 4.0 0.01 0.06 0.06 64 1014.1
20260506232022 67 307 2.0 4.0 0.01 0.06 0.06 63 1014.2
20260506231543 68 293 1.0 4.0 0.01 0.06 0.06 62 1013.9
20260506231023 69 293 2.0 8.0 0.01 0.06 0.06 61 1014.1
20260506230524 70 22 3.0 8.0 0.00 0.05 0.05 59 1013.7
20260506230040 71 314 1.0 6.0 0.00 0.05 0.05 57 1013.7
20260506225523 71 256 2.0 6.0 0.00 0.05 0.05 56 1013.7
20260506225024 72 296 3.0 6.0 0.00 0.05 0.05 56 1014.2
20260506224544 74 300 2.0 6.0 0.00 0.05 0.05 55 1013.6
20260506224024 74 49 1.0 3.0 0.00 0.05 0.05 55 1013.2
20260506223523 75 298 1.0 3.0 0.00 0.05 0.05 54 1013.2
20260506223033 75 325 0.0 2.0 0.00 0.05 0.05 53 1012.8
20260506222526 76 319 1.0 3.0 0.00 0.05 0.05 52 1012.5
20260506222023 76 0 0.0 3.0 0.00 0.05 0.05 52 1012.3
20260506221540 77 292 0.0 2.0 0.00 0.05 0.05 53 1012.3
20260506221020 76 0 0.0 2.0 0.00 0.05 0.05 53 1012.4
20260506220523 76 0 0.0 2.0 0.00 0.05 0.05 53 1012.2
20260506220040 76 0 0.0 2.0 0.00 0.05 0.05 54 1012.7
20260506215523 76 86 0.0 1.0 0.00 0.05 0.05 53 1012.8
20260506215020 76 0 0.0 2.0 0.00 0.05 0.05 54 1012.8
20260506214549 76 88 0.0 3.0 0.00 0.05 0.05 53 1012.7
20260506214023 76 86 1.0 3.0 0.00 0.05 0.05 53 1012.4
20260506213520 76 104 1.0 2.0 0.00 0.05 0.05 52 1012.4
20260506213043 77 89 0.0 2.0 0.00 0.05 0.05 50 1012.5
20260506212523 76 0 0.0 0.0 0.00 0.05 0.05 52 1012.5
20260506212020 76 0 0.0 0.0 0.00 0.05 0.05 53 1012.8
20260506211537 75 0 0.0 1.0 0.00 0.05 0.05 53 1013.1
20260506211021 75 0 0.0 1.0 0.00 0.05 0.05 53 1013.1
20260506210524 76 306 0.0 1.0 0.00 0.05 0.05 53 1013.2
20260506210040 76 50 0.0 1.0 0.00 0.05 0.05 53 1013.5
20260506205523 76 0 0.0 3.0 0.00 0.05 0.05 53 1013.5
20260506205023 76 294 1.0 4.0 0.00 0.05 0.05 52 1013.7
20260506204540 76 286 2.0 4.0 0.00 0.05 0.05 51 1013.4
20260506204023 77 298 1.0 4.0 0.00 0.05 0.05 50 1013.4
20260506203520 77 0 0.0 1.0 0.00 0.05 0.05 50 1013.5
20260506203042 77 0 0.0 1.0 0.00 0.05 0.05 51 1013.7
20260506202524 77 0 0.0 2.0 0.00 0.05 0.05 50 1013.8
20260506202024 77 286 0.0 2.0 0.00 0.05 0.05 51 1013.7
20260506201538 78 292 0.0 3.0 0.00 0.05 0.05 50 1013.8
20260506201025 78 0 0.0 5.0 0.00 0.05 0.05 50 1014.0
20260506200523 78 283 1.0 5.0 0.00 0.05 0.05 48 1014.2
20260506200037 79 0 0.0 4.0 0.00 0.05 0.05 48 1014.3
20260506195523 79 296 0.0 6.0 0.00 0.05 0.05 48 1014.1
20260506195027 79 290 1.0 6.0 0.00 0.05 0.05 49 1014.2
20260506194546 80 298 0.0 5.0 0.00 0.05 0.05 47 1014.3
20260506194020 80 15 1.0 5.0 0.00 0.05 0.05 47 1014.3
20260506193523 80 283 1.0 7.0 0.00 0.05 0.05 47 1014.3
20260506193041 80 115 0.0 7.0 0.00 0.05 0.05 48 1014.2
20260506192524 80 290 2.0 7.0 0.00 0.05 0.05 48 1014.3
20260506192024 80 100 1.0 11.0 0.00 0.05 0.05 49 1014.2
20260506191539 79 240 1.0 11.0 0.00 0.05 0.05 49 1014.6
20260506191021 80 282 2.0 8.0 0.00 0.05 0.05 46 1014.5
20260506190527 80 250 1.0 6.0 0.00 0.05 0.05 48 1014.7
20260506190042 80 290 1.0 5.0 0.00 0.05 0.05 49 1014.8
20260506185523 80 0 0.0 4.0 0.00 0.05 0.05 49 1014.8
20260506185023 79 0 1.0 4.0 0.00 0.05 0.05 50 1015.1
20260506184538 79 65 1.0 5.0 0.00 0.05 0.05 50 1015.1
20260506184022 78 325 1.0 5.0 0.00 0.05 0.05 52 1015.2
20260506183524 78 267 0.0 6.0 0.00 0.05 0.05 52 1015.2
20260506183036 77 281 2.0 6.0 0.00 0.05 0.05 53 1015.2
20260506182522 77 290 1.0 4.0 0.00 0.05 0.05 52 1015.3
20260506182023 77 297 0.0 1.0 0.00 0.05 0.05 53 1015.3
20260506181545 77 0 0.0 2.0 0.00 0.05 0.05 52 1015.1
20260506181023 77 263 0.0 2.0 0.00 0.05 0.05 53 1014.9
20260506180525 77 297 0.0 2.0 0.00 0.05 0.05 54 1014.9
20260506180043 76 223 0.0 2.0 0.00 0.05 0.05 56 1014.9
20260506175527 75 51 0.0 1.0 0.00 0.05 0.05 56 1014.9
20260506175022 75 218 0.0 5.0 0.00 0.05 0.05 57 1014.8
20260506174538 74 221 1.0 5.0 0.00 0.05 0.05 57 1014.9
20260506174022 74 117 0.0 3.0 0.00 0.05 0.05 57 1014.9
20260506173523 74 230 0.0 2.0 0.02 0.05 0.05 59 1014.9
20260506173037 73 238 0.0 2.0 0.04 0.05 0.05 59 1014.9
20260506172523 73 195 0.0 2.0 0.04 0.05 0.05 60 1015.1
20260506172022 73 0 0.0 2.0 0.05 0.05 0.05 60 1015.2
20260506171552 72 248 0.0 3.0 0.05 0.05 0.05 61 1015.3
20260506171023 72 0 0.0 3.0 0.05 0.05 0.05 62 1015.6
20260506170522 71 68 0.0 3.0 0.05 0.05 0.05 64 1015.5
20260506170040 70 129 0.0 2.0 0.05 0.05 0.05 64 1015.7
20260506165523 70 0 0.0 2.0 0.05 0.05 0.05 64 1015.9
20260506165023 70 272 0.0 2.0 0.05 0.05 0.05 64 1015.8
20260506164538 69 0 0.0 1.0 0.05 0.05 0.05 64 1015.8
20260506164022 69 0 0.0 2.0 0.05 0.05 0.05 62 1014.7
20260506163522 70 0 0.0 2.0 0.02 0.02 0.02 60 1016.3
20260506163043 71 174 0.0 3.0 0.01 0.01 0.01 58 1016.7
20260506162524 71 293 0.0 4.0 0.01 0.01 0.01 57 1016.4
20260506162022 71 276 1.0 4.0 0.00 0.00 0.00 54 1016.5
20260506161541 71 0 1.0 4.0 0.00 0.00 0.00 55 1016.4
20260506161023 71 261 0.0 3.0 0.00 0.00 0.00 54 1016.3
20260506160523 71 230 0.0 3.0 0.00 0.00 0.00 54 1016.6
20260506160042 71 302 0.0 4.0 0.00 0.00 0.00 54 1016.4
20260506155522 71 287 1.0 4.0 0.00 0.00 0.00 54 1016.3
20260506155025 71 141 0.0 3.0 0.00 0.00 0.00 55 1016.2
20260506154547 71 0 1.0 3.0 0.00 0.00 0.00 56 1015.9
20260506154025 71 4 0.0 1.0 0.00 0.00 0.00 55 1015.4
20260506153523 71 22 0.0 1.0 0.00 0.00 0.00 55 1015.8
20260506153037 71 244 0.0 1.0 0.00 0.00 0.00 53 1015.9
20260506152523 72 0 0.0 1.0 0.00 0.00 0.00 53 1015.7
20260506152025 72 282 0.0 1.0 0.00 0.00 0.00 53 1015.6
20260506151538 71 311 0.0 1.0 0.00 0.00 0.00 53 1015.8
20260506151028 71 0 0.0 1.0 0.00 0.00 0.00 53 1015.7
20260506150524 71 0 0.0 1.0 0.00 0.00 0.00 54 1015.8
20260506150045 71 0 0.0 1.0 0.00 0.00 0.00 54 1015.8
20260506145526 70 316 0.0 2.0 0.00 0.00 0.00 54 1015.7
20260506145023 70 327 0.0 2.0 0.00 0.00 0.00 53 1015.5
20260506144547 70 0 0.0 2.0 0.00 0.00 0.00 53 1015.6
20260506144023 70 297 0.0 2.0 0.00 0.00 0.00 53 1015.5
20260506143524 71 225 0.0 5.0 0.00 0.00 0.00 53 1015.4
20260506143039 71 167 1.0 5.0 0.00 0.00 0.00 52 1015.2
20260506142523 71 0 0.0 2.0 0.00 0.00 0.00 52 1015.2
20260506142023 71 77 0.0 2.0 0.00 0.00 0.00 52 1015.1
20260506141537 71 134 0.0 2.0 0.00 0.00 0.00 52 1014.9
20260506141023 70 222 0.0 4.0 0.00 0.00 0.00 53 1014.9
20260506140525 70 88 0.0 4.0 0.00 0.00 0.00 53 1014.9
20260506140053 69 274 0.0 3.0 0.00 0.00 0.00 53 1015.1
20260506135524 69 169 0.0 2.0 0.00 0.00 0.00 53 1014.9
20260506135025 69 252 0.0 1.0 0.00 0.00 0.00 53 1014.9
20260506134538 69 0 0.0 1.0 0.00 0.00 0.00 54 1014.9
20260506134024 68 264 0.0 3.0 0.00 0.00 0.00 53 1014.9
20260506133524 68 148 0.0 3.0 0.00 0.00 0.00 53 1015.0
20260506133046 68 113 0.0 6.0 0.00 0.00 0.00 53 1015.1
20260506132523 68 64 1.0 6.0 0.00 0.00 0.00 53 1015.1
20260506132025 68 103 0.0 3.0 0.00 0.00 0.00 53 1015.0
20260506131541 68 89 0.0 3.0 0.00 0.00 0.00 53 1014.8
20260506131023 67 0 0.0 3.0 0.00 0.00 0.00 53 1014.8
20260506130524 67 89 0.0 3.0 0.00 0.00 0.00 54 1015.1
20260506130040 67 111 0.0 1.0 0.00 0.00 0.00 54 1015.2
20260506125523 67 111 0.0 2.0 0.00 0.00 0.00 54 1015.3
20260506125023 66 0 0.0 2.0 0.00 0.00 0.00 55 1015.2
20260506124538 66 0 0.0 2.0 0.00 0.00 0.00 55 1015.1
20260506124023 65 0 0.0 2.0 0.00 0.00 0.00 54 1015.0
20260506123522 65 0 0.0 0.0 0.00 0.00 0.00 55 1015.0
20260506123038 65 0 0.0 1.0 0.00 0.00 0.00 55 1015.2
20260506122521 65 0 0.0 1.0 0.00 0.00 0.00 55 1015.0
20260506122022 65 92 0.0 1.0 0.00 0.00 0.00 56 1014.9
20260506121541 64 0 0.0 1.0 0.00 0.00 0.00 55 1015.1
20260506121024 64 0 0.0 1.0 0.00 0.00 0.00 55 1014.9
20260506120523 64 0 0.0 2.0 0.00 0.00 0.00 55 1014.5
20260506120042 64 94 0.0 2.0 0.00 0.00 0.00 55 1014.5
20260506115523 64 94 1.0 2.0 0.00 0.00 0.00 54 1014.5
20260506115023 64 106 0.0 2.0 0.00 0.00 0.00 54 1014.5
20260506114538 64 0 0.0 1.0 0.00 0.00 0.00 53 1014.7
20260506114026 64 0 0.0 2.0 0.00 0.00 0.00 54 1014.7
20260506113522 64 105 0.0 2.0 0.00 0.00 0.00 53 1014.6
20260506113046 64 0 0.0 2.0 0.00 0.00 0.00 53 1014.7
20260506112523 64 0 0.0 3.0 0.00 0.00 0.00 53 1014.8
20260506112026 64 0 0.0 3.0 0.00 0.00 0.00 53 1014.7
20260506111537 64 89 0.0 3.0 0.00 0.00 0.00 53 1014.6
20260506111022 64 0 0.0 4.0 0.00 0.00 0.00 53 1014.5
20260506110522 64 0 1.0 4.0 0.00 0.00 0.00 52 1014.5
20260506110041 64 117 0.0 2.0 0.00 0.00 0.00 52 1014.4
20260506105523 64 0 0.0 1.0 0.00 0.00 0.00 52 1014.5
20260506105023 64 0 0.0 1.0 0.00 0.00 0.00 52 1014.4
20260506104546 64 96 0.0 1.0 0.00 0.00 0.00 52 1014.4
20260506104024 64 0 0.0 1.0 0.00 0.00 0.00 51 1014.3
20260506103524 64 0 0.0 2.0 0.00 0.00 0.00 52 1014.2
20260506103041 64 0 0.0 2.0 0.00 0.00 0.00 51 1014.1
20260506102524 64 201 0.0 1.0 0.00 0.00 0.00 51 1014.0
20260506102023 64 0 0.0 1.0 0.00 0.00 0.00 51 1013.7
20260506101547 64 0 0.0 2.0 0.00 0.00 0.00 51 1013.8
20260506101023 64 0 0.0 2.0 0.00 0.00 0.00 51 1013.7
20260506100523 64 0 0.0 1.0 0.00 0.00 0.00 51 1013.4
20260506100037 64 0 0.0 2.0 0.00 0.00 0.00 50 1013.5
20260506095523 64 243 0.0 2.0 0.00 0.00 0.00 50 1013.4
20260506095022 64 0 0.0 3.0 0.00 0.00 0.00 50 1013.4
20260506094536 64 0 0.0 5.0 0.00 0.00 0.00 50 1013.2
20260506094021 64 116 1.0 5.0 0.00 0.00 0.00 50 1013.4
20260506093524 64 148 1.0 7.0 0.00 0.00 0.00 49 1013.5
20260506093036 64 195 1.0 7.0 0.00 0.00 0.00 49 1013.4
20260506092525 65 96 3.0 7.0 0.00 0.00 0.00 48 1013.3
20260506092023 65 91 2.0 7.0 0.00 0.00 0.00 48 1013.4
20260506091538 65 75 1.0 5.0 0.00 0.00 0.00 48 1013.4
20260506091023 65 159 2.0 6.0 0.00 0.00 0.00 48 1013.4
20260506090524 65 122 2.0 7.0 0.00 0.00 0.00 47 1013.5
20260506090038 65 106 0.0 7.0 0.00 0.00 0.00 47 1013.5
20260506085524 65 94 2.0 7.0 0.00 0.00 0.00 47 1013.6
20260506085023 65 153 1.0 9.0 0.00 0.00 0.00 47 1013.8
20260506084542 65 108 2.0 9.0 0.00 0.00 0.00 47 1013.7
20260506084023 65 84 1.0 6.0 0.00 0.00 0.00 48 1013.8
20260506083524 65 91 2.0 6.0 0.00 0.00 0.00 48 1013.6
20260506083038 65 90 2.0 5.0 0.00 0.00 0.00 49 1013.8
20260506082522 65 220 3.0 7.0 0.00 0.00 0.00 49 1013.8
20260506082022 65 82 2.0 8.0 0.00 0.00 0.00 50 1013.9
20260506081536 65 144 3.0 8.0 0.00 0.00 0.00 50 1014.1
20260506081028 65 134 3.0 6.0 0.00 0.00 0.00 51 1014.1
20260506080523 65 108 3.0 8.0 0.00 0.00 0.00 50 1014.2
20260506073523 66 90 1.0 7.0 0.00 0.00 0.00 45 1014.2
20260506073039 66 106 2.0 7.0 0.00 0.00 0.00 45 1014.1
20260506072523 67 145 2.0 7.0 0.00 0.00 0.00 44 1014.2
20260506072022 67 130 0.0 4.0 0.00 0.00 0.00 43 1014.3
20260506071538 67 0 0.0 2.0 0.00 0.00 0.00 43 1014.3
20260506071026 67 96 0.0 3.0 0.00 0.00 0.00 43 1014.1
20260506070522 67 0 0.0 3.0 0.00 0.00 0.00 43 1014.1
20260506062023 68 0 0.0 1.0 0.00 0.00 0.00 42 1014.5
20260506061538 68 0 0.0 2.0 0.00 0.00 0.00 42 1014.5
20260506061022 68 0 0.0 2.0 0.00 0.00 0.00 42 1014.6
20260506060523 68 0 0.0 1.0 0.00 0.00 0.00 42 1014.4